Ellsworth AFB, SD

2:52 AM MST on December 03, 2016 (GMT -0700)
Ellsworth Air Force Base

Weather History for KRCA - April, 2013

Change the Weather History Date:

Friday, April 12, 2013

  Actual Average Record
Temperature  
Mean Temperature 30 °F -  
Max Temperature 37 °F 53 °F 76 °F (2016)
Min Temperature 23 °F 30 °F 17 °F (1997)
Degree Days  
Heating Degree Days 35    
Moisture  
Dew Point 30 °F    
Average Humidity 87    
Maximum Humidity 93    
Minimum Humidity 66    
Precipitation  
Precipitation 0.00 in - - ()
Sea Level Pressure  
Sea Level Pressure 29.99 in    
Wind  
Wind Speed 13 mph (NNW)    
Max Wind Speed 30 mph    
Max Gust Speed 37 mph    
Visibility 8 miles    
Events Rain , Snow    
Averages and records for this station are not official NWS values.
T = Trace of Precipitation, MM = Missing Value Source: NWS Daily Summary

Daily Weather History Graph

Daily Weather History Graph

Search for Another Location

Airport or City:

Trip Planner

Search our weather history database for the weather conditions in past years. The results will help you decide how hot, cold, wet, or windy it might be!

Date:

Astronomy

Apr. 12, 2013 Rise Set
Actual Time 6:13 AM MDT 7:33 PM MDT
Civil Twilight 5:43 AM MDT 8:03 PM MDT
Nautical Twilight 5:07 AM MDT 8:39 PM MDT
Astronomical Twilight 4:29 AM MDT 9:17 PM MDT
Moon 7:20 AM MDT (4/12) 10:11 PM MDT (4/12)
Length of Visible Light 14h 19m
Length of Day
13h 19m
Waxing Crescent, 5% of the Moon is Illuminated
Apr 12
Waxing Crescent
Apr 18
First Quarter
Apr 25
Full
May 2
Last Quarter
May 9
New

Hourly Weather History & Observations

Time (MDT) Temp. Windchill Dew Point Humidity Pressure Visibility Wind Dir Wind Speed Gust Speed Precip Events Conditions
12:02 AM 32.0 °F 23.0 °F 28.4 °F 87% 29.92 in 10.0 mi North 11.5 mph - N/A   Overcast
12:04 AM 32.0 °F 23.0 °F 28.4 °F 87% 29.92 in 10.0 mi North 11.5 mph - N/A   Overcast
12:55 AM 32.0 °F 25.6 °F 28.6 °F 87% 29.93 in 10.0 mi North 6.9 mph - N/A   Overcast
1:55 AM 31.5 °F 25.8 °F 28.9 °F 90% 29.94 in 10.0 mi North 5.8 mph - N/A   Overcast
1:57 AM 32.0 °F 26.4 °F 28.4 °F 87% 29.94 in 10.0 mi NNE 5.8 mph - N/A   Overcast
1:59 AM 32.0 °F 26.4 °F 28.4 °F 87% 29.94 in 10.0 mi NNE 5.8 mph - N/A   Overcast
2:00 AM 32.0 °F 26.4 °F 28.4 °F 87% 29.94 in 10.0 mi NNE 5.8 mph - N/A   Overcast
2:01 AM 32.0 °F 26.4 °F 28.4 °F 87% 29.94 in 10.0 mi NNE 5.8 mph - N/A   Overcast
2:04 AM 32.0 °F 26.4 °F 28.4 °F 87% 29.94 in 10.0 mi NNE 5.8 mph - N/A   Overcast
2:07 AM 32.0 °F 27.5 °F 28.4 °F 87% 29.94 in 10.0 mi NNE 4.6 mph - N/A   Overcast
2:55 AM 31.1 °F 25.4 °F 27.9 °F 88% 29.94 in 10.0 mi North 5.8 mph - N/A   Mostly Cloudy
3:55 AM 28.8 °F 21.7 °F 26.2 °F 90% 29.93 in 10.0 mi West 6.9 mph - N/A   Overcast
4:55 AM 23.7 °F 16.6 °F 21.7 °F 92% 29.94 in 10.0 mi West 5.8 mph - N/A   Overcast
5:55 AM 23.2 °F 12.0 °F 21.0 °F 91% 29.95 in 10.0 mi NW 11.5 mph - N/A   Clear
6:55 AM 25.2 °F 18.3 °F 21.4 °F 86% 29.95 in 10.0 mi NW 5.8 mph - N/A   Clear
7:55 AM 28.8 °F 22.6 °F 22.8 °F 78% 29.96 in 10.0 mi WNW 5.8 mph - N/A   Overcast
8:55 AM 37.0 °F 28.1 °F 26.8 °F 66% 29.93 in 10.0 mi North 15.0 mph - N/A   Mostly Cloudy
9:55 AM 36.7 °F 27.6 °F 28.0 °F 71% 29.96 in 10.0 mi North 15.0 mph - N/A   Overcast
10:07 AM 35.6 °F 27.5 °F 28.4 °F 75% 29.96 in 10.0 mi NNE 11.5 mph - N/A   Overcast
10:15 AM 35.6 °F 26.6 °F 28.4 °F 75% 29.96 in 10.0 mi NNE 13.8 mph - N/A   Overcast
10:22 AM 35.6 °F 26.2 °F 28.4 °F 75% 29.96 in 10.0 mi NNE 15.0 mph - N/A Rain Light Rain
10:32 AM 33.8 °F 23.9 °F 28.4 °F 81% 29.96 in 10.0 mi North 15.0 mph - N/A   Overcast
10:38 AM 33.8 °F 23.9 °F 28.4 °F 81% 29.97 in 10.0 mi North 15.0 mph - N/A Rain Light Rain
10:55 AM 34.2 °F 24.8 °F 29.5 °F 83% 29.97 in 10.0 mi North 13.8 mph - 0.00 in Rain Light Rain
11:08 AM 33.8 °F 24.8 °F 30.2 °F 87% 29.98 in 10.0 mi North 12.7 mph - N/A   Overcast
11:11 AM 33.8 °F 23.9 °F 30.2 °F 87% 29.98 in 10.0 mi North 15.0 mph - N/A Rain Light Rain
11:30 AM 35.6 °F 27.5 °F 30.2 °F 81% 29.99 in 10.0 mi North 11.5 mph - N/A   Overcast
11:40 AM 35.6 °F 26.6 °F 32.0 °F 87% 29.98 in 10.0 mi North 13.8 mph - N/A Rain Light Rain
11:50 AM 35.6 °F 27.1 °F 32.0 °F 87% 29.99 in 10.0 mi North 12.7 mph - N/A Rain Light Rain
11:55 AM 35.6 °F 27.1 °F 31.6 °F 85% 29.99 in 10.0 mi North 12.7 mph - 0.00 in Rain Light Rain
12:00 PM 35.6 °F 26.2 °F 32.0 °F 87% 29.99 in 10.0 mi North 15.0 mph - N/A Snow Light Snow
12:08 PM 35.6 °F 26.2 °F 32.0 °F 87% 29.99 in 5.0 mi North 15.0 mph - N/A Snow Light Snow
12:41 PM 35.6 °F 27.1 °F 33.8 °F 93% 29.99 in 2.5 mi North 12.7 mph - N/A Snow Light Snow
12:48 PM 35.6 °F 26.6 °F 33.8 °F 93% 29.99 in 3.0 mi North 13.8 mph - N/A Snow Light Snow
12:55 PM 35.4 °F 25.6 °F 33.4 °F 92% 29.99 in 5.0 mi North 16.1 mph - 0.00 in Snow Light Snow
1:07 PM 35.6 °F 25.5 °F 33.8 °F 93% 29.99 in 2.5 mi North 17.3 mph - N/A Snow Light Snow
1:08 PM 35.6 °F 25.2 °F 33.8 °F 93% 29.99 in 2.0 mi North 18.4 mph - N/A Snow Light Snow
1:10 PM 35.6 °F 25.5 °F 33.8 °F 93% 29.99 in 1.8 mi North 17.3 mph - N/A Snow Light Snow
1:16 PM 35.6 °F 25.9 °F 33.8 °F 93% 29.99 in 2.0 mi North 16.1 mph - N/A Snow Light Snow
1:17 PM 35.6 °F 25.9 °F 33.8 °F 93% 29.99 in 2.5 mi North 16.1 mph - N/A Snow Light Snow
1:18 PM 35.6 °F 25.9 °F 33.8 °F 93% 29.99 in 3.0 mi North 16.1 mph - N/A Snow Light Snow
1:52 PM 35.6 °F 25.9 °F 33.8 °F 93% 29.98 in 10.0 mi North 16.1 mph 24.2 mph N/A Rain Light Rain
1:55 PM 35.8 °F 25.4 °F 33.1 °F 90% 29.98 in 10.0 mi North 18.4 mph 24.2 mph 0.00 in Rain Light Rain
1:59 PM 35.6 °F 25.5 °F 32.0 °F 87% 29.98 in 10.0 mi NNW 17.3 mph 25.3 mph N/A   Overcast
2:01 PM 35.6 °F 25.9 °F 32.0 °F 87% 29.99 in 10.0 mi NNW 16.1 mph 25.3 mph N/A   Overcast
2:55 PM 36.7 °F 25.7 °F 32.5 °F 85% 29.98 in 10.0 mi NNW 21.9 mph 26.5 mph 0.00 in   Overcast
3:55 PM 36.3 °F 24.9 °F 31.5 °F 83% 29.99 in 10.0 mi NNW 23.0 mph 32.2 mph N/A   Overcast
4:55 PM 36.1 °F 23.9 °F 29.8 °F 78% 30.01 in 10.0 mi NW 26.5 mph - N/A   Overcast
5:33 PM 35.6 °F 24.0 °F 30.2 °F 81% 30.03 in 10.0 mi NNW 23.0 mph - N/A Rain Light Rain
5:41 PM 35.6 °F 23.0 °F 30.2 °F 81% 30.03 in 10.0 mi NW 27.6 mph 31.1 mph N/A Rain Light Rain
5:50 PM 33.8 °F 20.1 °F 30.2 °F 87% 30.04 in 7.0 mi NW 29.9 mph 36.8 mph N/A Snow Light Snow
5:51 PM 33.8 °F 20.3 °F 30.2 °F 87% 30.04 in 6.0 mi NW 28.8 mph 36.8 mph N/A Snow Light Snow
5:55 PM 33.6 °F 20.1 °F 31.1 °F 90% 30.04 in 2.5 mi NW 28.8 mph 36.8 mph 0.00 in Snow Light Snow
5:56 PM 33.8 °F 20.3 °F 32.0 °F 93% 30.04 in 2.0 mi NW 28.8 mph 36.8 mph N/A Snow Light Snow
5:57 PM 33.8 °F 20.5 °F 32.0 °F 93% 30.04 in 1.8 mi NW 27.6 mph - N/A Snow Light Snow
5:58 PM 33.8 °F 20.5 °F 32.0 °F 93% 30.04 in 1.5 mi NW 27.6 mph - N/A Snow Light Snow
5:59 PM 33.8 °F 21.0 °F 32.0 °F 93% 30.04 in 1.5 mi NW 25.3 mph - N/A Snow Light Snow
6:00 PM 33.8 °F 21.0 °F 32.0 °F 93% 30.04 in 1.2 mi NNW 25.3 mph - N/A Snow Light Snow
6:03 PM 33.8 °F 21.0 °F 32.0 °F 93% 30.04 in 1.2 mi NNW 25.3 mph - N/A Snow Light Snow
6:04 PM 33.8 °F 21.0 °F 32.0 °F 93% 30.04 in 1.5 mi NNW 25.3 mph - N/A Snow Light Snow
6:06 PM 33.8 °F 21.3 °F 32.0 °F 93% 30.04 in 1.8 mi NNW 24.2 mph 31.1 mph N/A Snow Light Snow
6:07 PM 33.8 °F 21.3 °F 32.0 °F 93% 30.04 in 2.0 mi NNW 24.2 mph 31.1 mph N/A Snow Light Snow
6:08 PM 33.8 °F 21.3 °F 32.0 °F 93% 30.04 in 2.5 mi NW 24.2 mph 31.1 mph N/A Snow Light Snow
6:09 PM 33.8 °F 21.0 °F 32.0 °F 93% 30.03 in 3.0 mi NW 25.3 mph 31.1 mph N/A Snow Light Snow
6:15 PM 33.8 °F 21.3 °F 32.0 °F 93% 30.04 in 4.0 mi NNW 24.2 mph 31.1 mph N/A Snow Light Snow
6:51 PM 33.8 °F 23.5 °F 32.0 °F 93% 30.04 in 10.0 mi NNW 16.1 mph - N/A   Overcast
6:55 PM 34.0 °F 23.0 °F 31.3 °F 90% 30.04 in 10.0 mi NNW 18.4 mph - 0.00 in   Overcast
7:55 PM 33.6 °F 24.6 °F 30.2 °F 87% 30.03 in 10.0 mi NNW 12.7 mph - N/A   Clear
8:55 PM 34.3 °F 25.9 °F 28.2 °F 78% 30.01 in 10.0 mi NNW 11.5 mph - N/A   Clear
9:55 PM 30.6 °F 22.4 °F 25.7 °F 82% 30.02 in 10.0 mi NW 9.2 mph - N/A   Clear
10:55 PM 30.0 °F 26.5 °F 25.3 °F 83% 30.01 in 10.0 mi SW 3.5 mph - N/A   Clear
11:55 PM 27.3 °F 23.4 °F 22.3 °F 81% 30.00 in 10.0 mi NW 3.5 mph - N/A   Clear